Regional Weather Roundup
Issued by NWS Memphis, TN

Home | Current Version | Previous Version | Text Only | Print | Product List | Glossary On
Versions: 1 2 3 4 5 6 7 8 9 10 11 12 13 14 15 16 17 18 19 20 21 22 23 24 25 26 27 28 29 30 31 32 33 34 35 36 37 38 39 40 41 42 43 44 45 46 47 48 49 50
000
ASUS44 KMEG 300710
RWRMEG
MEMPHIS CWA HOURLY WEATHER ROUNDUP
NATIONAL WEATHER SERVICE MEMPHIS TN
200 AM CDT SUN APR 30 2017

...WEST TENNESSEE...

CITY           SKY/WX    TMP DP  RH WIND       PRES   REMARKS
MEMPHIS INTL   CLOUDY    77  68  73 S22G31    29.75F
NWS MEMPHIS      N/A     76 N/A N/A MISG        N/A
JACKSON        CLOUDY    76  66  71 S13G22    29.81F
SOMERVILLE     PTCLDY    77  66  69 S14G24    29.79S
BOLIVAR        PTCLDY    75  66  73 SE12G20   29.81F
LEXINGTON      PTCLDY    75  64  69 S10G18    29.85S
SAVANNAH       PTCLDY    75  66  73 S14G21    29.84F
DYERSBURG      CLOUDY    75  67  76 SE14G22   29.77F
UNION CITY     MOCLDY    70  66  88 VRB6      29.78F
HUNTINGDON     MOCLDY    75  64  69 S15       29.82F


...EASTERN ARKANSAS...

CITY           SKY/WX    TMP DP  RH WIND       PRES   REMARKS
JONESBORO      TSTM      66  64  93 W8G21     29.79R FOG
WEST MEMPHIS   CLOUDY    75  69  81 S16       29.76R
BATESVILLE     CLOUDY    66  66 100 E7        29.74F
NEWPORT        TSTM      65  64  97 W7        29.75R
WALNUT RIDGE   CLOUDY    66  63  88 NW6       29.81R THUNDER
BLYTHEVILLE    CLOUDY    75  68  78 S15G26    29.74F
SEARCY         TSTM      66  66 100 E5        29.75F
STUTTGART      CLOUDY    75  63  64 SE17G26   29.68F
PINE BLUFF     TSTM      74  70  87 SE26G40   29.63R FOG
MONTICELLO     CLOUDY    76  70  82 SE9       29.69F


...NORTH MISSISSIPPI...

CITY           SKY/WX    TMP DP  RH WIND       PRES   REMARKS
TUPELO         CLOUDY    75  65  70 SE17G24   29.83F
OXFORD         CLOUDY    73  66  78 SE13G28   29.81F
BATESVILLE     CLOUDY    75  66  73 SE13G22   29.79S
TUNICA         CLOUDY    72  68  88 SE13      29.77R
CLARKSDALE     CLOUDY    77  73  88 SE16      29.76S
CORINTH        CLOUDY    75  64  69 S13G24    29.84F
GREENWOOD      CLOUDY    78  70  76 S15       29.78R
STARKVILLE     MOCLDY    73  68  83 SE18G25   29.82F
GOLDEN TRIANGL CLEAR     73  64  73 SE21G30   29.80F


...SOUTHEAST MISSOURI...

CITY           SKY/WX    TMP DP  RH WIND       PRES   REMARKS
KENNETT        CLOUDY    72  68  88 SE16G23   29.69F
MALDEN         CLOUDY    68  64  88 E9        29.73F
POPLAR BLUFF   RAIN      66  64  93 E8G18     29.71F
CAPE GIRARDEAU TSTM      64  62  93 E9        29.77F


...NORTHWEST ALABAMA...

CITY           SKY/WX    TMP DP  RH WIND       PRES   REMARKS
MUSCLE SHOALS  CLOUDY    74  65  73 SE15G25   29.91F


...MIDDLE TENNESSEE...

CITY           SKY/WX    TMP DP  RH WIND       PRES   REMARKS
NASHVILLE      MOCLDY    75  64  68 S10       29.92F
CLARKSVILLE    CLOUDY    74  62  66 S7        29.86F
COLUMBIA       CLEAR     73  73 100 S7        29.90F


...WESTERN KENTUCKY...

CITY           SKY/WX    TMP DP  RH WIND       PRES   REMARKS
PADUCAH        CLOUDY    66  63  90 E10       29.80F
FORT CAMPBELL  PTCLDY    74  64  69 S9        29.86F


...CENTRAL ARKANSAS...

CITY           SKY/WX    TMP DP  RH WIND       PRES   REMARKS
LITTLE ROCK    TSTM      64  64 100 VRB6      29.66F FOG


SKY/WX REPORTED AS FAIR MEANS FEW OR NO CLOUDS BELOW
12 THOUSAND FEET.





USA.gov is the U.S. government's official web portal to all federal, state and local government web resources and services.